KNF04 EDLM-EDLP

Flight info

Callsign KNF04
Flight time 0h 22m
Altitude 1500
Route DCT
Aircraft SF50/L-SDGRWY/L

Departure

Time 2026-05-09 18:23
Airport Marl-Loemühle Airfield (EDLM)

Arrival

Time 2026-05-09 18:45
Airport Paderborn Lippstadt Airport (EDLP)
Time Latitude Longitude Altitude Speed Heading
2026-05-09 18:12 51.64784 7.15981 231 ft 0 kts 343°
2026-05-09 18:18 51.64795 7.15993 231 ft 7 kts 68°
2026-05-09 18:18 51.64757 7.16044 231 ft 10 kts 124°
2026-05-09 18:19 51.64729 7.16139 230 ft 8 kts 77°
2026-05-09 18:19 51.64776 7.16373 228 ft 12 kts 71°
2026-05-09 18:19 51.64801 7.16492 228 ft 10 kts 71°
2026-05-09 18:20 51.64825 7.16613 228 ft 10 kts 70°
2026-05-09 18:20 51.64845 7.16712 227 ft 7 kts 68°
2026-05-09 18:20 51.64863 7.16794 227 ft 6 kts 75°
2026-05-09 18:20 51.64878 7.16873 226 ft 9 kts 75°
2026-05-09 18:21 51.64876 7.16903 226 ft 0 kts 133°
2026-05-09 18:21 51.64867 7.16917 226 ft 7 kts 152°
2026-05-09 18:21 51.64833 7.16908 226 ft 4 kts 241°
2026-05-09 18:22 51.64803 7.16774 227 ft 41 kts 250°
2026-05-09 18:22 51.64647 7.15963 271 ft 92 kts 255°
2026-05-09 18:22 51.64373 7.15057 415 ft 93 kts 230°
2026-05-09 18:22 51.64042 7.14169 670 ft 96 kts 250°
2026-05-09 18:23 51.63834 7.13239 1011 ft 92 kts 250°
2026-05-09 18:23 51.63320 7.13041 1060 ft 103 kts 119°
2026-05-09 18:23 51.62956 7.14011 1314 ft 115 kts 118°
2026-05-09 18:23 51.62632 7.15353 1324 ft 142 kts 85°
2026-05-09 18:24 51.63302 7.16509 1329 ft 157 kts 21°
2026-05-09 18:24 51.64369 7.17082 1254 ft 168 kts 47°
2026-05-09 18:24 51.64993 7.18650 1309 ft 168 kts 59°
2026-05-09 18:25 51.65962 7.22196 1291 ft 171 kts 63°
2026-05-09 18:25 51.66509 7.23894 1449 ft 166 kts 60°
2026-05-09 18:25 51.67143 7.25718 1460 ft 204 kts 59°
2026-05-09 18:25 51.67923 7.27844 1505 ft 235 kts 58°
2026-05-09 18:26 51.68809 7.30157 1500 ft 245 kts 58°
2026-05-09 18:26 51.69716 7.32466 1493 ft 243 kts 57°
2026-05-09 18:26 51.70634 7.34746 1491 ft 241 kts 57°
2026-05-09 18:26 51.71553 7.36992 1492 ft 240 kts 56°
2026-05-09 18:27 51.72420 7.39087 1494 ft 240 kts 56°
2026-05-09 18:27 51.73032 7.40559 1495 ft 239 kts 56°
2026-05-09 18:27 51.74249 7.43473 1496 ft 239 kts 56°
2026-05-09 18:27 51.75171 7.45674 1494 ft 239 kts 56°
2026-05-09 18:28 51.76107 7.47905 1492 ft 239 kts 56°
2026-05-09 18:28 51.77040 7.50126 1492 ft 239 kts 56°
2026-05-09 18:28 51.77965 7.52328 1491 ft 238 kts 56°
2026-05-09 18:28 51.78903 7.54554 1493 ft 238 kts 56°
2026-05-09 18:29 51.79848 7.56810 1496 ft 238 kts 56°
2026-05-09 18:29 51.80792 7.59058 1500 ft 239 kts 56°
2026-05-09 18:29 51.81725 7.61285 1499 ft 239 kts 56°
2026-05-09 18:29 51.82657 7.63521 1499 ft 239 kts 56°
2026-05-09 18:30 51.83593 7.65762 1496 ft 239 kts 57°
2026-05-09 18:30 51.84514 7.68009 1496 ft 239 kts 57°
2026-05-09 18:30 51.85435 7.70237 1497 ft 239 kts 57°
2026-05-09 18:30 51.86350 7.72448 1499 ft 239 kts 57°
2026-05-09 18:31 51.87231 7.74724 1484 ft 239 kts 68°
2026-05-09 18:31 51.87201 7.77329 1498 ft 238 kts 111°
2026-05-09 18:31 51.86125 7.79376 1516 ft 239 kts 140°
2026-05-09 18:31 51.84824 7.81142 1497 ft 240 kts 139°
2026-05-09 18:32 51.83505 7.82922 1495 ft 240 kts 139°
2026-05-09 18:32 51.82214 7.84679 1492 ft 240 kts 136°
2026-05-09 18:32 51.81062 7.86697 1494 ft 239 kts 128°
2026-05-09 18:32 51.80074 7.88924 1494 ft 239 kts 122°
2026-05-09 18:33 51.79219 7.91249 1497 ft 238 kts 118°
2026-05-09 18:33 51.78452 7.93624 1497 ft 238 kts 115°
2026-05-09 18:33 51.77735 7.96079 1495 ft 238 kts 114°
2026-05-09 18:33 51.77110 7.98384 1493 ft 238 kts 112°
2026-05-09 18:34 51.76477 8.00840 1496 ft 238 kts 112°
2026-05-09 18:34 51.75900 8.03165 1498 ft 238 kts 111°
2026-05-09 18:34 51.75295 8.05657 1496 ft 237 kts 110°
2026-05-09 18:34 51.74701 8.08151 1498 ft 237 kts 110°
2026-05-09 18:35 51.74115 8.10643 1497 ft 237 kts 110°
2026-05-09 18:35 51.73537 8.13132 1497 ft 237 kts 110°
2026-05-09 18:35 51.72944 8.15689 1496 ft 236 kts 110°
2026-05-09 18:35 51.72360 8.18219 1498 ft 236 kts 110°
2026-05-09 18:36 51.71773 8.20779 1498 ft 236 kts 110°
2026-05-09 18:36 51.71176 8.23364 1500 ft 236 kts 110°
2026-05-09 18:36 51.70595 8.25879 1501 ft 235 kts 110°
2026-05-09 18:36 51.70010 8.28427 1501 ft 235 kts 110°
2026-05-09 18:37 51.69449 8.30862 1490 ft 211 kts 110°
2026-05-09 18:37 51.68949 8.33029 1488 ft 187 kts 110°
2026-05-09 18:37 51.68527 8.34855 1653 ft 161 kts 110°
2026-05-09 18:37 51.68101 8.36700 1528 ft 171 kts 110°
2026-05-09 18:38 51.67680 8.38517 1504 ft 167 kts 110°
2026-05-09 18:38 51.67276 8.40268 1489 ft 151 kts 110°
2026-05-09 18:38 51.66937 8.41728 1476 ft 123 kts 109°
2026-05-09 18:40 51.65760 8.49919 1507 ft 104 kts 104°
2026-05-09 18:40 51.65608 8.51082 1510 ft 105 kts 101°
2026-05-09 18:40 51.65456 8.52271 1508 ft 106 kts 101°
2026-05-09 18:41 51.65306 8.53455 1511 ft 106 kts 101°
2026-05-09 18:41 51.65155 8.54641 1511 ft 106 kts 102°
2026-05-09 18:41 51.65003 8.55823 1507 ft 107 kts 102°
2026-05-09 18:41 51.64852 8.57005 1511 ft 107 kts 102°
2026-05-09 18:42 51.64327 8.57713 1527 ft 104 kts 151°
2026-05-09 18:42 51.63635 8.57861 1493 ft 114 kts 225°
2026-05-09 18:42 51.63298 8.56720 1513 ft 113 kts 239°
2026-05-09 18:42 51.62938 8.55591 1507 ft 115 kts 237°
2026-05-09 18:43 51.62557 8.54441 1447 ft 110 kts 235°
2026-05-09 18:43 51.62018 8.54292 1358 ft 76 kts 154°
2026-05-09 18:43 51.61525 8.54532 1185 ft 75 kts 157°
2026-05-09 18:43 51.61018 8.54778 1068 ft 81 kts 156°
2026-05-09 18:44 51.60467 8.55080 1109 ft 86 kts 143°
2026-05-09 18:44 51.60616 8.55730 1112 ft 81 kts 31°
2026-05-09 18:44 51.61175 8.56217 1012 ft 103 kts 36°
2026-05-09 18:44 51.61741 8.56969 989 ft 97 kts 51°
2026-05-09 18:45 51.61996 8.57795 982 ft 73 kts 69°
2026-05-09 18:45 51.61899 8.58582 773 ft 71 kts 118°
2026-05-09 18:45 51.61495 8.59100 641 ft 73 kts 132°
2026-05-09 18:45 51.61151 8.59630 691 ft 0 kts 129°